Location: *
(40.7873°S, 98.7174°E)
Time: 10:11:10
(UTC+00:00)

NOSS 3-4 (C) - Pass Details

Date: 01 October 2022
Orbit: 836 x 1376 km, 63.4° (Epoch: 25 November)

Event Time Altitude Azimuth Distance (km) Brightness Sun altitude
Exits shadow 17:36:17 18° 109° (ESE) 2,822 6.0 -45.6°
Drops below altitude 10° 17:38:43 10° 123° (ESE) 3,358 6.6 -45.5°
Sets 17:42:01 0° 134° (SE) 4,271 7.4 -45.4°
